AUA241 LOWW-LOWI

Flight info

Callsign AUA241
Flight time 0h 47m
Altitude 30000
Route SOVIL DCT SITNI DCT BAGSI DCT NANIT NANIT2A
Aircraft A320/M-SDE3FGHIRWY/LB1

Departure

Time 2026-04-25 16:11
Airport Vienna International Airport (LOWW)

Arrival

Time 2026-04-25 16:58
Airport Innsbruck Airport (LOWI)
Time Latitude Longitude Altitude Speed Heading
2026-04-25 15:48 48.11628 16.56503 610 ft 0 kts 206°
2026-04-25 16:03 48.11635 16.56508 619 ft 4 kts 205°
2026-04-25 16:03 48.11659 16.56523 617 ft 4 kts 198°
2026-04-25 16:04 48.11685 16.56532 623 ft 4 kts 179°
2026-04-25 16:04 48.11707 16.56524 619 ft 3 kts 123°
2026-04-25 16:04 48.11709 16.56519 620 ft 0 kts 116°
2026-04-25 16:06 48.11707 16.56525 619 ft 4 kts 116°
2026-04-25 16:06 48.11672 16.56630 618 ft 12 kts 116°
2026-04-25 16:06 48.11636 16.56742 614 ft 11 kts 116°
2026-04-25 16:07 48.11603 16.56843 612 ft 10 kts 114°
2026-04-25 16:07 48.11579 16.56900 613 ft 10 kts 135°
2026-04-25 16:07 48.11457 16.56864 616 ft 16 kts 206°
2026-04-25 16:07 48.11353 16.56847 610 ft 16 kts 137°
2026-04-25 16:08 48.11304 16.56984 618 ft 14 kts 115°
2026-04-25 16:08 48.11263 16.57113 617 ft 13 kts 117°
2026-04-25 16:08 48.11222 16.57232 616 ft 12 kts 117°
2026-04-25 16:08 48.11188 16.57341 612 ft 11 kts 115°
2026-04-25 16:09 48.11156 16.57440 623 ft 10 kts 116°
2026-04-25 16:09 48.11117 16.57521 612 ft 12 kts 148°
2026-04-25 16:09 48.11011 16.57478 621 ft 16 kts 205°
2026-04-25 16:09 48.10965 16.57376 614 ft 0 kts 296°
2026-04-25 16:10 48.10968 16.57369 616 ft 2 kts 296°
2026-04-25 16:10 48.11021 16.57202 614 ft 51 kts 295°
2026-04-25 16:10 48.11284 16.56398 615 ft 118 kts 296°
2026-04-25 16:10 48.11724 16.55060 680 ft 161 kts 295°
2026-04-25 16:11 48.12237 16.53506 1239 ft 171 kts 294°
2026-04-25 16:11 48.12294 16.51767 2042 ft 176 kts 250°
2026-04-25 16:11 48.11647 16.50144 2620 ft 191 kts 242°
2026-04-25 16:11 48.10907 16.48369 2975 ft 212 kts 241°
2026-04-25 16:12 48.10101 16.46397 3386 ft 234 kts 242°
2026-04-25 16:12 48.09168 16.44252 3896 ft 256 kts 237°
2026-04-25 16:12 48.08099 16.42060 4770 ft 264 kts 237°
2026-04-25 16:12 48.07349 16.40574 5414 ft 266 kts 236°
2026-04-25 16:13 48.05855 16.37640 6687 ft 269 kts 236°
2026-04-25 16:13 48.04718 16.35393 7606 ft 272 kts 236°
2026-04-25 16:13 48.03774 16.32945 8514 ft 272 kts 252°
2026-04-25 16:13 48.03341 16.30208 9438 ft 272 kts 267°
2026-04-25 16:14 48.03354 16.27332 10269 ft 277 kts 273°
2026-04-25 16:14 48.03417 16.24373 10572 ft 300 kts 273°
2026-04-25 16:14 48.03481 16.21132 10856 ft 322 kts 272°
2026-04-25 16:14 48.03541 16.17728 11499 ft 331 kts 272°
2026-04-25 16:15 48.03598 16.14268 12259 ft 335 kts 272°
2026-04-25 16:15 48.03655 16.10771 13040 ft 338 kts 272°
2026-04-25 16:15 48.03712 16.07233 13816 ft 342 kts 272°
2026-04-25 16:15 48.03769 16.03665 14503 ft 345 kts 272°
2026-04-25 16:16 48.03824 16.00073 15211 ft 347 kts 272°
2026-04-25 16:16 48.03880 15.96447 15895 ft 350 kts 272°
2026-04-25 16:16 48.03937 15.92793 16579 ft 353 kts 272°
2026-04-25 16:16 48.03996 15.89115 17245 ft 356 kts 272°
2026-04-25 16:17 48.04052 15.85393 17919 ft 359 kts 272°
2026-04-25 16:17 48.04105 15.81699 18552 ft 362 kts 272°
2026-04-25 16:17 48.04157 15.77876 19149 ft 364 kts 272°
2026-04-25 16:17 48.04207 15.74076 19729 ft 367 kts 272°
2026-04-25 16:18 48.04254 15.70291 20332 ft 370 kts 272°
2026-04-25 16:18 48.04271 15.68996 20546 ft 371 kts 272°
2026-04-25 16:18 48.04350 15.62545 21503 ft 375 kts 271°
2026-04-25 16:18 48.04400 15.58631 22070 ft 377 kts 271°
2026-04-25 16:19 48.04450 15.54686 22616 ft 380 kts 271°
2026-04-25 16:19 48.04497 15.50719 23152 ft 383 kts 271°
2026-04-25 16:19 48.04541 15.46724 23675 ft 386 kts 271°
2026-04-25 16:20 48.04627 15.38660 24511 ft 390 kts 271°
2026-04-25 16:20 48.04674 15.34589 24879 ft 393 kts 271°
2026-04-25 16:20 48.04804 15.26371 25686 ft 397 kts 271°
2026-04-25 16:21 48.04876 15.22236 26085 ft 399 kts 271°
2026-04-25 16:21 48.04947 15.18071 26473 ft 401 kts 271°
2026-04-25 16:21 48.05014 15.13897 26854 ft 403 kts 271°
2026-04-25 16:21 48.05077 15.09697 27237 ft 405 kts 271°
2026-04-25 16:22 48.05138 15.05486 27609 ft 406 kts 271°
2026-04-25 16:22 48.05199 15.01252 27967 ft 408 kts 271°
2026-04-25 16:22 48.05255 14.97057 28309 ft 410 kts 271°
2026-04-25 16:22 48.05308 14.92785 28654 ft 412 kts 271°
2026-04-25 16:23 48.05358 14.88439 28981 ft 413 kts 271°
2026-04-25 16:23 48.05409 14.84140 29297 ft 415 kts 271°
2026-04-25 16:23 48.05459 14.79866 29594 ft 417 kts 271°
2026-04-25 16:23 48.05502 14.75520 29882 ft 418 kts 271°
2026-04-25 16:24 48.05539 14.71158 30015 ft 415 kts 270°
2026-04-25 16:24 48.05602 14.62649 30021 ft 407 kts 270°
2026-04-25 16:25 48.05658 14.54193 30022 ft 407 kts 270°
2026-04-25 16:25 48.05709 14.45722 30024 ft 408 kts 270°
2026-04-25 16:26 48.05751 14.37240 30026 ft 408 kts 270°
2026-04-25 16:26 48.05296 14.28823 30022 ft 408 kts 257°
2026-04-25 16:27 48.03158 14.21016 30028 ft 411 kts 246°
2026-04-25 16:27 48.00618 14.13356 30014 ft 411 kts 245°
2026-04-25 16:28 47.98082 14.05699 30016 ft 412 kts 245°
2026-04-25 16:28 47.95529 13.98027 30022 ft 413 kts 245°
2026-04-25 16:29 47.92979 13.90391 30027 ft 413 kts 245°
2026-04-25 16:29 47.90405 13.82710 30022 ft 414 kts 245°
2026-04-25 16:30 47.87842 13.75068 30038 ft 414 kts 245°
2026-04-25 16:30 47.85268 13.67442 30039 ft 414 kts 245°
2026-04-25 16:31 47.82698 13.59842 30029 ft 414 kts 245°
2026-04-25 16:31 47.80117 13.52225 30030 ft 415 kts 245°
2026-04-25 16:32 47.77511 13.44560 30029 ft 415 kts 245°
2026-04-25 16:32 47.75327 13.38144 30035 ft 415 kts 245°
2026-04-25 16:33 47.72735 13.30538 30035 ft 415 kts 245°
2026-04-25 16:33 47.70109 13.22883 30042 ft 415 kts 244°
2026-04-25 16:34 47.67484 13.15249 30021 ft 415 kts 244°
2026-04-25 16:34 47.64867 13.07658 30039 ft 414 kts 244°
2026-04-25 16:35 47.62235 13.00041 30030 ft 415 kts 244°
2026-04-25 16:35 47.59632 12.92551 29761 ft 416 kts 243°
2026-04-25 16:35 47.58299 12.88720 30062 ft 420 kts 244°
2026-04-25 16:36 47.56961 12.84875 30055 ft 420 kts 244°
2026-04-25 16:36 47.54302 12.77234 30048 ft 418 kts 244°
2026-04-25 16:37 47.51631 12.69590 30042 ft 417 kts 244°
2026-04-25 16:37 47.48971 12.62001 30053 ft 414 kts 243°
2026-04-25 16:38 47.46290 12.54399 30042 ft 423 kts 244°
2026-04-25 16:38 47.44933 12.50554 29221 ft 430 kts 244°
2026-04-25 16:38 47.43548 12.46639 28417 ft 427 kts 243°
2026-04-25 16:38 47.42181 12.42781 27758 ft 421 kts 243°
2026-04-25 16:39 47.40951 12.38888 27101 ft 415 kts 250°
2026-04-25 16:39 47.40179 12.34809 26457 ft 410 kts 260°
2026-04-25 16:39 47.39889 12.30632 25802 ft 407 kts 269°
2026-04-25 16:39 47.40072 12.26476 25159 ft 404 kts 277°
2026-04-25 16:40 47.40468 12.22388 24523 ft 402 kts 277°
2026-04-25 16:40 47.40857 12.18306 23879 ft 399 kts 277°
2026-04-25 16:40 47.41232 12.14311 23212 ft 397 kts 277°
2026-04-25 16:40 47.41609 12.10240 22590 ft 393 kts 277°
2026-04-25 16:41 47.41969 12.06326 22053 ft 388 kts 277°
2026-04-25 16:41 47.42211 12.03671 21669 ft 385 kts 277°
2026-04-25 16:41 47.42909 11.94655 20489 ft 376 kts 270°
2026-04-25 16:42 47.42693 11.90839 19998 ft 372 kts 260°
2026-04-25 16:42 47.42208 11.87106 19523 ft 369 kts 260°
2026-04-25 16:42 47.41722 11.83391 19043 ft 366 kts 260°
2026-04-25 16:42 47.41244 11.79725 18565 ft 362 kts 260°
2026-04-25 16:43 47.40770 11.76085 18041 ft 359 kts 260°
2026-04-25 16:43 47.40302 11.72477 17543 ft 356 kts 259°
2026-04-25 16:43 47.39839 11.68902 17039 ft 353 kts 260°
2026-04-25 16:43 47.39377 11.65353 16542 ft 351 kts 260°
2026-04-25 16:44 47.38917 11.61836 16046 ft 348 kts 260°
2026-04-25 16:44 47.38464 11.58397 15546 ft 347 kts 260°
2026-04-25 16:44 47.38003 11.54908 15033 ft 346 kts 260°
2026-04-25 16:44 47.37541 11.51424 14521 ft 347 kts 260°
2026-04-25 16:45 47.37094 11.48057 14020 ft 348 kts 260°
2026-04-25 16:45 47.36630 11.44554 13459 ft 347 kts 260°
2026-04-25 16:45 47.36172 11.41102 12931 ft 346 kts 260°
2026-04-25 16:45 47.35712 11.37624 12391 ft 343 kts 260°
2026-04-25 16:46 47.35255 11.34182 11857 ft 341 kts 260°
2026-04-25 16:46 47.34798 11.30766 11318 ft 339 kts 259°
2026-04-25 16:46 47.34336 11.27353 10773 ft 338 kts 259°
2026-04-25 16:46 47.34033 11.25124 10631 ft 331 kts 258°
2026-04-25 16:47 47.33443 11.20777 10486 ft 314 kts 259°
2026-04-25 16:47 47.33025 11.17693 10406 ft 300 kts 260°
2026-04-25 16:47 47.32630 11.14782 10305 ft 287 kts 259°
2026-04-25 16:47 47.32245 11.11952 10178 ft 276 kts 259°
2026-04-25 16:48 47.31873 11.09226 10058 ft 266 kts 259°
2026-04-25 16:48 47.31510 11.06585 9760 ft 262 kts 259°
2026-04-25 16:48 47.31147 11.03954 9372 ft 260 kts 259°
2026-04-25 16:48 47.30645 11.01380 8764 ft 268 kts 242°
2026-04-25 16:49 47.29295 10.99426 8030 ft 286 kts 209°
2026-04-25 16:49 47.27445 10.98317 7789 ft 279 kts 210°
2026-04-25 16:49 47.26054 10.96591 7719 ft 259 kts 240°
2026-04-25 16:49 47.25641 10.94147 7666 ft 241 kts 277°
2026-04-25 16:50 47.26019 10.91804 7619 ft 232 kts 291°
2026-04-25 16:50 47.26548 10.89565 7566 ft 232 kts 286°
2026-04-25 16:50 47.26873 10.87279 7515 ft 230 kts 282°
2026-04-25 16:50 47.27110 10.84924 7451 ft 232 kts 284°
2026-04-25 16:51 47.27795 10.82805 7339 ft 231 kts 315°
2026-04-25 16:51 47.29113 10.81597 7211 ft 227 kts 346°
2026-04-25 16:51 47.30678 10.81643 7048 ft 233 kts 16°
2026-04-25 16:51 47.31619 10.82449 6897 ft 234 kts 46°
2026-04-25 16:52 47.31966 10.85455 6540 ft 244 kts 106°
2026-04-25 16:52 47.31353 10.87891 5793 ft 261 kts 112°
2026-04-25 16:52 47.30698 10.90343 5621 ft 252 kts 102°
2026-04-25 16:52 47.30444 10.92806 5617 ft 237 kts 93°
2026-04-25 16:53 47.30311 10.97610 5615 ft 234 kts 89°
2026-04-25 16:53 47.30294 10.99997 5482 ft 231 kts 88°
2026-04-25 16:53 47.30288 11.02341 5359 ft 228 kts 89°
2026-04-25 16:54 47.30280 11.04675 5232 ft 226 kts 88°
2026-04-25 16:54 47.30033 11.06938 5092 ft 228 kts 103°
2026-04-25 16:54 47.29537 11.09157 4832 ft 229 kts 106°
2026-04-25 16:54 47.29008 11.11374 4444 ft 232 kts 107°
2026-04-25 16:55 47.28477 11.13657 3947 ft 240 kts 108°
2026-04-25 16:55 47.27947 11.16013 3485 ft 243 kts 107°
2026-04-25 16:55 47.27436 11.18268 3397 ft 219 kts 107°
2026-04-25 16:55 47.26975 11.20315 3252 ft 198 kts 105°
2026-04-25 16:56 47.26643 11.22134 3210 ft 170 kts 99°
2026-04-25 16:56 47.26417 11.23748 3227 ft 156 kts 100°
2026-04-25 16:56 47.26195 11.25276 3075 ft 150 kts 100°
2026-04-25 16:56 47.25970 11.26760 2904 ft 148 kts 99°
2026-04-25 16:57 47.25782 11.28213 2760 ft 146 kts 99°
2026-04-25 16:57 47.25719 11.28708 2711 ft 146 kts 99°
2026-04-25 16:57 47.25681 11.31180 2277 ft 145 kts 80°
2026-04-25 16:57 47.25834 11.32631 2024 ft 143 kts 78°
2026-04-25 16:58 47.25979 11.34039 1910 ft 129 kts 80°
2026-04-25 16:58 47.26084 11.34972 1901 ft 49 kts 82°
2026-04-25 16:58 47.26105 11.35188 1907 ft 14 kts 82°
2026-04-25 16:58 47.26044 11.35262 1903 ft 8 kts 171°
2026-04-25 16:59 47.26027 11.35266 1905 ft 0 kts 171°
2026-04-25 16:59 47.25998 11.35272 1903 ft 11 kts 171°
2026-04-25 16:59 47.25930 11.35288 1904 ft 9 kts 172°
2026-04-25 17:00 47.25898 11.35245 1896 ft 0 kts 254°
2026-04-25 17:00 47.25893 11.35235 1899 ft 4 kts 234°
2026-04-25 17:00 47.25871 11.35225 1904 ft 3 kts 179°
2026-04-25 17:01 47.25850 11.35226 1907 ft 3 kts 174°
2026-04-25 17:01 47.25842 11.35228 1907 ft 0 kts 172°
2026-04-25 17:01 47.25954 11.33800 1903 ft 117 kts 80°
2026-04-25 17:01 47.26455 11.23487 3228 ft 157 kts 99°
2026-04-25 17:02 47.25793 11.32223 2087 ft 132 kts 77°
2026-04-25 17:02 47.25947 11.33726 1905 ft 125 kts 79°
2026-04-25 17:02 47.26068 11.34808 1897 ft 65 kts 81°
2026-04-25 17:02 47.26096 11.35232 1892 ft 9 kts 124°